STARLINK-11474, 62065

Orbit data source: Space-Track

STARLINK-11474, 62065 is a payload satellite owned by SpaceX/Seattle (US) in LEO that was launched on Sun, 24 Nov 2024 UTC via an FALCON 9 launch vehicle from the Air Force Western Test Range (AFWTR). Payload-class satellites include a variety of spacecraft equipped with specific instruments for various scientific and technological missions. These include communications satellites like Starlink; space stations such as the ISS; scientific satellites like the Hubble; Earth observation satellites from companies like Planet Labs, Umbra, and HawkEye 360; GPS; miniature CubeSats for education and research; and military/defense satellites.

Not visible in the next 10 days
Identifier
62065, 2024-217J
Orbit
LEO
Country
Flag of USUS
Related business
Manufacturer
SpaceX/Seattle
Mission
Operational Commercial Communications
Bus & Motor
STARLINK V2MD, Unknown motor
Mass
960 kg wet, ~910 kg dry
Launch date (UTC)
2024-11-24 (1 year ago)
Launch vehicle
FALCON 9
Launch site
Air Force Western Test Range (AFWTR)
Object type
Payload
Rocket body
Debris
Shape & HBR
Box + 2 Pan, 18.1 m
Radar Cross Section
36.964 m², Large (>1 m²)

Expand to show TLE details & history
Last TLE update: 9 hours ago

TLE from 9 hours ago
0 STARLINK-11474
1 62065U 24217J   26095.27644454  .00307891  00000-0  24448-2 0  9995
2 62065  53.1563 299.8705 0001871  38.9776 321.1377 15.69791819 79355
Epoch: 2026-04-05T06:38Z
TLE epoch observation values (Epoch: 2026-04-05T06:38:04.808Z)
Latitude
0.00003°
Longitude
6.7663°
Altitude
359.426 km
Speed
7.695 km/s
True Right ascension
19h 59m 28s
True Declination
0° 00' 00"
Sunlit
Object was in daylight at epoch
Visualization orbit readout
Latitude
Unknown
Longitude
Unknown
Altitude
Unknown
Speed
Unknown
Apparent Right ascension
Unknown
Apparent Declination
Unknown
Sunlit
N/A
Visualization observer readout
Local Sidereal Time
21:56:26
Azimuth
Unknown
Elevation
Unknown
Doppler factor
Unknown
Orbital elements
Apogee altitude
361.015 km
Perigee altitude
358.493 km
Semi-major axis
6,737.891 km
Eccentricity
0.00019
Inclination
53.1563°
RAAN
299.8705°
Arg. of periapsis
38.9776°
True anomaly
321.12424°
Mean anomaly
321.1377°
Eccentric anomaly
321.13097°
Mean motion
3.92425 °/min
Orbital period
91.74 mins
BSTAR
0.0024448
Loading maneuver chart data...
Computing Atmospheric mass density...
Loading historical data...
Loading historical data...
Loading historical data...
Loading historical data...
Loading historical data...
Loading historical data...
Loading historical data...

Documentation

Showing up to 5 results
|